Home > Time Zones > World Clock > Weather > Norway > Tau > Past weeks

Flag for Norway Weather past 2 weeks in Tau, Norway

Now
43 °F

Passing clouds.


Feels Like: N/A
Forecast: 41 / 48 °F
Wind: N/A

Location: Stavanger / Sola

Current Time: May 24, 2015 at 6:02:55 AM

Latest Report: May 24, 2015 at 5:20 AM


Visibility: N/A

Pressure: 30.01 "Hg

Humidity: 81%

Dew point: 37 °F

Location of TauLocation

Historic Weather in Tau — Graph

°F

Tau temperature yesterday

Maximum temperature yesterday: 50 °F (at 12:20 PM)
Minimum temperature yesterday: 43 °F (at 11:20 PM)
Average temperature yesterday: 48 °F

Past Weeks' High & Low Weather Summary

 TemperatureHumidityPressure
High54 °F (May 12, 2:20 PM)100% (May 11, 5:20 PM)30.18 "Hg (May 11, 5:20 PM)
Low36 °F (May 9, 4:50 AM)40% (May 9, 11:20 AM)29.24 "Hg (May 19, 5:50 AM)
Average48 °F80%29.85 "Hg
* Reported May 9 4:50 AM — May 24 4:50 AM, Tau, Weather by CustomWeather, © 2015

Note: Actual official high and low records may vary slightly from our data, if they occured in-between our weather recording intervals... More about our weather records

Advertising

Tau weather history for previous 24 hours

 ConditionsComfort  
Time TempWeatherWind HumidityBarometerVisibility
4:50 AM
Sun, May 24
43 °FPassing clouds.N/A76%30.01 "HgN/A
3:50 AM41 °FOvercast.N/A81%30.04 "HgN/A
2:50 AM39 °FClear.N/A81%30.07 "Hg10 mi
1:50 AM39 °FClear.N/A81%30.07 "Hg10 mi
12:50 AM41 °FClear.N/A76%30.09 "Hg10 mi
12:20 AM41 °FClear.N/A70%30.09 "Hg10 mi
11:50 PM
Sat, May 23
43 °FClear.N/A71%30.09 "Hg10 mi
11:20 PM43 °FClear.N/A71%30.09 "Hg10 mi
10:50 PM45 °FSunny.N/A66%30.09 "Hg10 mi
10:20 PM45 °FSunny.N/A66%30.09 "Hg10 mi
9:50 PM45 °FPassing clouds.6 mph66%30.09 "HgN/A
9:20 PM46 °FPassing clouds.9 mph62%30.09 "HgN/A
8:50 PM46 °FPassing clouds.14 mph62%30.12 "HgN/A
8:20 PM48 °FPassing clouds.13 mph58%30.12 "HgN/A
7:50 PM48 °FScattered clouds.16 mph58%30.12 "HgN/A
7:20 PM48 °FScattered clouds.15 mph58%30.12 "HgN/A
6:50 PM48 °FScattered clouds.17 mph62%30.12 "HgN/A
6:20 PM48 °FPassing clouds.18 mph62%30.15 "HgN/A
5:50 PM50 °FPassing clouds.17 mph62%30.15 "HgN/A
5:20 PM50 °FScattered clouds.16 mph62%30.15 "HgN/A
4:50 PM50 °FScattered clouds.16 mph62%30.15 "HgN/A
4:20 PM50 °FScattered clouds.18 mph58%30.15 "HgN/A
3:50 PM50 °FPartly sunny.17 mph71%30.15 "HgN/A
3:20 PM50 °FScattered clouds.16 mph62%30.15 "HgN/A
2:50 PM48 °FPartly sunny.17 mph62%30.18 "HgN/A
2:20 PM50 °FPartly sunny.17 mph62%30.15 "HgN/A
1:50 PM50 °FPartly sunny.16 mph62%30.15 "HgN/A
1:20 PM50 °FScattered clouds.20 mph58%30.15 "HgN/A
12:50 PM50 °FPartly sunny.18 mph62%30.15 "HgN/A
12:20 PM50 °FScattered clouds.18 mph58%30.15 "HgN/A
11:50 AM48 °FPartly sunny.16 mph66%30.15 "HgN/A
11:20 AM48 °FBroken clouds.17 mph66%30.15 "HgN/A
10:50 AM46 °FBroken clouds.14 mph76%30.12 "HgN/A
10:20 AM48 °FBroken clouds.17 mph66%30.12 "HgN/A
9:50 AM48 °FLight rain. Broken clouds.18 mph66%30.12 "HgN/A
9:20 AM48 °FPartly sunny.17 mph66%30.09 "HgN/A
8:50 AM48 °FPartly sunny.18 mph71%30.09 "HgN/A
8:20 AM48 °FCloudy.18 mph76%30.07 "HgN/A
7:50 AM46 °FPartly sunny.20 mph82%30.07 "HgN/A
7:20 AM46 °FPartly sunny.17 mph82%30.07 "HgN/A
6:50 AM46 °FPartly sunny.21 mph82%30.07 "HgN/A
6:20 AM48 °FBroken clouds.18 mph82%30.04 "HgN/A
Weather by CustomWeather, © 2015

See weather overviewHow to use our weather pages